Location: Unspecified
(0.0000°N, 0.0000°E)
Time: 09:12:43
(UTC+00:00)

Tiros 1 despin weight - Pass Details

Date: 15 December 2018
Orbit: 594 x 643 km, 48.2° (Epoch: 17 January)

Event Time Altitude Azimuth Distance (km) Brightness Sun altitude
Rises 20:21:30 0° 210° (SSW) 2,826 ? -33.2°
Reaches altitude 10° 20:23:51 10° 205° (SSW) 1,921 ? -33.7°
Enters shadow 20:24:44 16° 201° (SSW) 1,588 ? -33.9°
